Index of /20260506/WXO-DD/model_caps/3km/00/038
Name Last modified Size Description
Parent Directory -
20260506T00Z_MSC_CAPS_AbsoluteVorticity_IsbL-0250_RLatLon0.03_PT038H.grib2 2026-05-06 06:18 897K
20260506T00Z_MSC_CAPS_AbsoluteVorticity_IsbL-0500_RLatLon0.03_PT038H.grib2 2026-05-06 06:18 1.3M
20260506T00Z_MSC_CAPS_AbsoluteVorticity_IsbL-0700_RLatLon0.03_PT038H.grib2 2026-05-06 06:18 1.1M
20260506T00Z_MSC_CAPS_AbsoluteVorticity_IsbL-0850_RLatLon0.03_PT038H.grib2 2026-05-06 06:18 1.3M
20260506T00Z_MSC_CAPS_AbsoluteVorticity_IsbL-1000_RLatLon0.03_PT038H.grib2 2026-05-06 06:18 1.4M
20260506T00Z_MSC_CAPS_AirDensity_AGL-120m_RLatLon0.03_PT038H.grib2 2026-05-06 06:18 1.4M
20260506T00Z_MSC_CAPS_AirDensity_AGL-40m_RLatLon0.03_PT038H.grib2 2026-05-06 06:18 1.4M
20260506T00Z_MSC_CAPS_AirDensity_AGL-80m_RLatLon0.03_PT038H.grib2 2026-05-06 06:18 1.4M
20260506T00Z_MSC_CAPS_AirTemp_AGL-120m_RLatLon0.03_PT038H.grib2 2026-05-06 06:18 1.4M
20260506T00Z_MSC_CAPS_AirTemp_AGL-2m_RLatLon0.03_PT038H.grib2 2026-05-06 06:18 1.8M
20260506T00Z_MSC_CAPS_AirTemp_AGL-40m_RLatLon0.03_PT038H.grib2 2026-05-06 06:18 1.5M
20260506T00Z_MSC_CAPS_AirTemp_AGL-80m_RLatLon0.03_PT038H.grib2 2026-05-06 06:18 1.5M
20260506T00Z_MSC_CAPS_AirTemp_IsbL-0050_RLatLon0.03_PT038H.grib2 2026-05-06 06:18 678K
20260506T00Z_MSC_CAPS_AirTemp_IsbL-0100_RLatLon0.03_PT038H.grib2 2026-05-06 06:18 786K
20260506T00Z_MSC_CAPS_AirTemp_IsbL-0150_RLatLon0.03_PT038H.grib2 2026-05-06 06:18 751K
20260506T00Z_MSC_CAPS_AirTemp_IsbL-0175_RLatLon0.03_PT038H.grib2 2026-05-06 06:18 781K
20260506T00Z_MSC_CAPS_AirTemp_IsbL-0200_RLatLon0.03_PT038H.grib2 2026-05-06 06:18 803K
20260506T00Z_MSC_CAPS_AirTemp_IsbL-0225_RLatLon0.03_PT038H.grib2 2026-05-06 06:18 802K
20260506T00Z_MSC_CAPS_AirTemp_IsbL-0250_RLatLon0.03_PT038H.grib2 2026-05-06 06:18 1.0M
20260506T00Z_MSC_CAPS_AirTemp_IsbL-0275_RLatLon0.03_PT038H.grib2 2026-05-06 06:18 1.0M
20260506T00Z_MSC_CAPS_AirTemp_IsbL-0300_RLatLon0.03_PT038H.grib2 2026-05-06 06:18 1.0M
20260506T00Z_MSC_CAPS_AirTemp_IsbL-0350_RLatLon0.03_PT038H.grib2 2026-05-06 06:18 756K
20260506T00Z_MSC_CAPS_AirTemp_IsbL-0400_RLatLon0.03_PT038H.grib2 2026-05-06 06:18 755K
20260506T00Z_MSC_CAPS_AirTemp_IsbL-0450_RLatLon0.03_PT038H.grib2 2026-05-06 06:18 772K
20260506T00Z_MSC_CAPS_AirTemp_IsbL-0500_RLatLon0.03_PT038H.grib2 2026-05-06 06:18 790K
20260506T00Z_MSC_CAPS_AirTemp_IsbL-0550_RLatLon0.03_PT038H.grib2 2026-05-06 06:18 802K
20260506T00Z_MSC_CAPS_AirTemp_IsbL-0600_RLatLon0.03_PT038H.grib2 2026-05-06 06:18 819K
20260506T00Z_MSC_CAPS_AirTemp_IsbL-0650_RLatLon0.03_PT038H.grib2 2026-05-06 06:18 848K
20260506T00Z_MSC_CAPS_AirTemp_IsbL-0700_RLatLon0.03_PT038H.grib2 2026-05-06 06:18 883K
20260506T00Z_MSC_CAPS_AirTemp_IsbL-0750_RLatLon0.03_PT038H.grib2 2026-05-06 06:18 911K
20260506T00Z_MSC_CAPS_AirTemp_IsbL-0800_RLatLon0.03_PT038H.grib2 2026-05-06 06:18 939K
20260506T00Z_MSC_CAPS_AirTemp_IsbL-0850_RLatLon0.03_PT038H.grib2 2026-05-06 06:18 1.1M
20260506T00Z_MSC_CAPS_AirTemp_IsbL-0875_RLatLon0.03_PT038H.grib2 2026-05-06 06:18 1.1M
20260506T00Z_MSC_CAPS_AirTemp_IsbL-0900_RLatLon0.03_PT038H.grib2 2026-05-06 06:18 1.1M
20260506T00Z_MSC_CAPS_AirTemp_IsbL-0925_RLatLon0.03_PT038H.grib2 2026-05-06 06:18 1.0M
20260506T00Z_MSC_CAPS_AirTemp_IsbL-0950_RLatLon0.03_PT038H.grib2 2026-05-06 06:18 1.1M
20260506T00Z_MSC_CAPS_AirTemp_IsbL-0970_RLatLon0.03_PT038H.grib2 2026-05-06 06:18 1.1M
20260506T00Z_MSC_CAPS_AirTemp_IsbL-0985_RLatLon0.03_PT038H.grib2 2026-05-06 06:18 1.1M
20260506T00Z_MSC_CAPS_AirTemp_IsbL-1000_RLatLon0.03_PT038H.grib2 2026-05-06 06:18 1.0M
20260506T00Z_MSC_CAPS_AirTemp_IsbL-1015_RLatLon0.03_PT038H.grib2 2026-05-06 06:18 1.1M
20260506T00Z_MSC_CAPS_Albedo_Sfc_RLatLon0.03_PT038H.grib2 2026-05-06 06:18 2.7M
20260506T00Z_MSC_CAPS_CAPE_Sfc_RLatLon0.03_PT038H.grib2 2026-05-06 06:18 226K
20260506T00Z_MSC_CAPS_CloudWater_EAtm_RLatLon0.03_PT038H.grib2 2026-05-06 06:18 1.6M
20260506T00Z_MSC_CAPS_ConvectivePrecip-Accum_Sfc_RLatLon0.03_PT038H.grib2 2026-05-06 06:18 5.3M
20260506T00Z_MSC_CAPS_DewPointDepression_AGL-120m_RLatLon0.03_PT038H.grib2 2026-05-06 06:18 2.2M
20260506T00Z_MSC_CAPS_DewPointDepression_AGL-2m_RLatLon0.03_PT038H.grib2 2026-05-06 06:18 2.2M
20260506T00Z_MSC_CAPS_DewPointDepression_AGL-40m_RLatLon0.03_PT038H.grib2 2026-05-06 06:18 2.2M
20260506T00Z_MSC_CAPS_DewPointDepression_AGL-80m_RLatLon0.03_PT038H.grib2 2026-05-06 06:18 2.2M
20260506T00Z_MSC_CAPS_DewPointDepression_IsbL-0050_RLatLon0.03_PT038H.grib2 2026-05-06 06:18 2.1K
20260506T00Z_MSC_CAPS_DewPointDepression_IsbL-0100_RLatLon0.03_PT038H.grib2 2026-05-06 06:18 50K
20260506T00Z_MSC_CAPS_DewPointDepression_IsbL-0150_RLatLon0.03_PT038H.grib2 2026-05-06 06:18 66K
20260506T00Z_MSC_CAPS_DewPointDepression_IsbL-0175_RLatLon0.03_PT038H.grib2 2026-05-06 06:18 215K
20260506T00Z_MSC_CAPS_DewPointDepression_IsbL-0200_RLatLon0.03_PT038H.grib2 2026-05-06 06:18 411K
20260506T00Z_MSC_CAPS_DewPointDepression_IsbL-0225_RLatLon0.03_PT038H.grib2 2026-05-06 06:18 587K
20260506T00Z_MSC_CAPS_DewPointDepression_IsbL-0250_RLatLon0.03_PT038H.grib2 2026-05-06 06:18 861K
20260506T00Z_MSC_CAPS_DewPointDepression_IsbL-0275_RLatLon0.03_PT038H.grib2 2026-05-06 06:18 1.0M
20260506T00Z_MSC_CAPS_DewPointDepression_IsbL-0300_RLatLon0.03_PT038H.grib2 2026-05-06 06:18 1.1M
20260506T00Z_MSC_CAPS_DewPointDepression_IsbL-0350_RLatLon0.03_PT038H.grib2 2026-05-06 06:18 1.1M
20260506T00Z_MSC_CAPS_DewPointDepression_IsbL-0400_RLatLon0.03_PT038H.grib2 2026-05-06 06:18 1.1M
20260506T00Z_MSC_CAPS_DewPointDepression_IsbL-0450_RLatLon0.03_PT038H.grib2 2026-05-06 06:18 1.2M
20260506T00Z_MSC_CAPS_DewPointDepression_IsbL-0500_RLatLon0.03_PT038H.grib2 2026-05-06 06:18 1.2M
20260506T00Z_MSC_CAPS_DewPointDepression_IsbL-0550_RLatLon0.03_PT038H.grib2 2026-05-06 06:18 1.3M
20260506T00Z_MSC_CAPS_DewPointDepression_IsbL-0600_RLatLon0.03_PT038H.grib2 2026-05-06 06:18 1.3M
20260506T00Z_MSC_CAPS_DewPointDepression_IsbL-0650_RLatLon0.03_PT038H.grib2 2026-05-06 06:18 1.3M
20260506T00Z_MSC_CAPS_DewPointDepression_IsbL-0700_RLatLon0.03_PT038H.grib2 2026-05-06 06:18 1.4M
20260506T00Z_MSC_CAPS_DewPointDepression_IsbL-0750_RLatLon0.03_PT038H.grib2 2026-05-06 06:18 1.4M
20260506T00Z_MSC_CAPS_DewPointDepression_IsbL-0800_RLatLon0.03_PT038H.grib2 2026-05-06 06:18 1.4M
20260506T00Z_MSC_CAPS_DewPointDepression_IsbL-0850_RLatLon0.03_PT038H.grib2 2026-05-06 06:18 1.4M
20260506T00Z_MSC_CAPS_DewPointDepression_IsbL-0875_RLatLon0.03_PT038H.grib2 2026-05-06 06:18 1.4M
20260506T00Z_MSC_CAPS_DewPointDepression_IsbL-0900_RLatLon0.03_PT038H.grib2 2026-05-06 06:18 1.4M
20260506T00Z_MSC_CAPS_DewPointDepression_IsbL-0925_RLatLon0.03_PT038H.grib2 2026-05-06 06:18 1.4M
20260506T00Z_MSC_CAPS_DewPointDepression_IsbL-0950_RLatLon0.03_PT038H.grib2 2026-05-06 06:18 1.4M
20260506T00Z_MSC_CAPS_DewPointDepression_IsbL-0970_RLatLon0.03_PT038H.grib2 2026-05-06 06:18 1.4M
20260506T00Z_MSC_CAPS_DewPointDepression_IsbL-0985_RLatLon0.03_PT038H.grib2 2026-05-06 06:18 1.4M
20260506T00Z_MSC_CAPS_DewPointDepression_IsbL-1000_RLatLon0.03_PT038H.grib2 2026-05-06 06:18 1.4M
20260506T00Z_MSC_CAPS_DewPointDepression_IsbL-1015_RLatLon0.03_PT038H.grib2 2026-05-06 06:18 1.4M
20260506T00Z_MSC_CAPS_DewPoint_AGL-120m_RLatLon0.03_PT038H.grib2 2026-05-06 06:18 3.8M
20260506T00Z_MSC_CAPS_DewPoint_AGL-2m_RLatLon0.03_PT038H.grib2 2026-05-06 06:18 1.8M
20260506T00Z_MSC_CAPS_DewPoint_AGL-40m_RLatLon0.03_PT038H.grib2 2026-05-06 06:18 3.8M
20260506T00Z_MSC_CAPS_DewPoint_AGL-80m_RLatLon0.03_PT038H.grib2 2026-05-06 06:18 3.8M
20260506T00Z_MSC_CAPS_DownwardLongwaveRadiationFlux-Accum_Sfc_RLatLon0.03_PT038H.grib2 2026-05-06 06:18 2.7M
20260506T00Z_MSC_CAPS_DownwardShortwaveRadiationFlux-Accum_NTAtm_RLatLon0.03_PT038H.grib2 2026-05-06 06:18 491K
20260506T00Z_MSC_CAPS_DownwardShortwaveRadiationFlux-Accum_Sfc_RLatLon0.03_PT038H.grib2 2026-05-06 06:18 3.0M
20260506T00Z_MSC_CAPS_FreezingRain-Accum_Sfc_RLatLon0.03_PT038H.grib2 2026-05-06 06:18 1.0M
20260506T00Z_MSC_CAPS_GeopotentialHeight_IsbL-0050_RLatLon0.03_PT038H.grib2 2026-05-06 06:18 608K
20260506T00Z_MSC_CAPS_GeopotentialHeight_IsbL-0100_RLatLon0.03_PT038H.grib2 2026-05-06 06:18 808K
20260506T00Z_MSC_CAPS_GeopotentialHeight_IsbL-0150_RLatLon0.03_PT038H.grib2 2026-05-06 06:18 600K
20260506T00Z_MSC_CAPS_GeopotentialHeight_IsbL-0175_RLatLon0.03_PT038H.grib2 2026-05-06 06:18 718K
20260506T00Z_MSC_CAPS_GeopotentialHeight_IsbL-0200_RLatLon0.03_PT038H.grib2 2026-05-06 06:18 738K
20260506T00Z_MSC_CAPS_GeopotentialHeight_IsbL-0225_RLatLon0.03_PT038H.grib2 2026-05-06 06:18 751K
20260506T00Z_MSC_CAPS_GeopotentialHeight_IsbL-0250_RLatLon0.03_PT038H.grib2 2026-05-06 06:18 763K
20260506T00Z_MSC_CAPS_GeopotentialHeight_IsbL-0275_RLatLon0.03_PT038H.grib2 2026-05-06 06:18 771K
20260506T00Z_MSC_CAPS_GeopotentialHeight_IsbL-0300_RLatLon0.03_PT038H.grib2 2026-05-06 06:18 774K
20260506T00Z_MSC_CAPS_GeopotentialHeight_IsbL-0350_RLatLon0.03_PT038H.grib2 2026-05-06 06:18 775K
20260506T00Z_MSC_CAPS_GeopotentialHeight_IsbL-0400_RLatLon0.03_PT038H.grib2 2026-05-06 06:18 771K
20260506T00Z_MSC_CAPS_GeopotentialHeight_IsbL-0450_RLatLon0.03_PT038H.grib2 2026-05-06 06:18 764K
20260506T00Z_MSC_CAPS_GeopotentialHeight_IsbL-0500_RLatLon0.03_PT038H.grib2 2026-05-06 06:18 755K
20260506T00Z_MSC_CAPS_GeopotentialHeight_IsbL-0550_RLatLon0.03_PT038H.grib2 2026-05-06 06:18 638K
20260506T00Z_MSC_CAPS_GeopotentialHeight_IsbL-0600_RLatLon0.03_PT038H.grib2 2026-05-06 06:18 633K
20260506T00Z_MSC_CAPS_GeopotentialHeight_IsbL-0650_RLatLon0.03_PT038H.grib2 2026-05-06 06:18 805K
20260506T00Z_MSC_CAPS_GeopotentialHeight_IsbL-0700_RLatLon0.03_PT038H.grib2 2026-05-06 06:18 802K
20260506T00Z_MSC_CAPS_GeopotentialHeight_IsbL-0750_RLatLon0.03_PT038H.grib2 2026-05-06 06:18 804K
20260506T00Z_MSC_CAPS_GeopotentialHeight_IsbL-0800_RLatLon0.03_PT038H.grib2 2026-05-06 06:18 884K
20260506T00Z_MSC_CAPS_GeopotentialHeight_IsbL-0850_RLatLon0.03_PT038H.grib2 2026-05-06 06:18 893K
20260506T00Z_MSC_CAPS_GeopotentialHeight_IsbL-0875_RLatLon0.03_PT038H.grib2 2026-05-06 06:18 898K
20260506T00Z_MSC_CAPS_GeopotentialHeight_IsbL-0900_RLatLon0.03_PT038H.grib2 2026-05-06 06:18 906K
20260506T00Z_MSC_CAPS_GeopotentialHeight_IsbL-0925_RLatLon0.03_PT038H.grib2 2026-05-06 06:18 916K
20260506T00Z_MSC_CAPS_GeopotentialHeight_IsbL-0950_RLatLon0.03_PT038H.grib2 2026-05-06 06:18 927K
20260506T00Z_MSC_CAPS_GeopotentialHeight_IsbL-0970_RLatLon0.03_PT038H.grib2 2026-05-06 06:18 936K
20260506T00Z_MSC_CAPS_GeopotentialHeight_IsbL-0985_RLatLon0.03_PT038H.grib2 2026-05-06 06:18 945K
20260506T00Z_MSC_CAPS_GeopotentialHeight_IsbL-1000_RLatLon0.03_PT038H.grib2 2026-05-06 06:18 955K
20260506T00Z_MSC_CAPS_GeopotentialHeight_IsbL-1015_RLatLon0.03_PT038H.grib2 2026-05-06 06:18 967K
20260506T00Z_MSC_CAPS_GeopotentialHeight_Sfc_RLatLon0.03_PT038H.grib2 2026-05-06 06:18 1.0M
20260506T00Z_MSC_CAPS_IcePellets-Accum_Sfc_RLatLon0.03_PT038H.grib2 2026-05-06 06:18 74K
20260506T00Z_MSC_CAPS_LatentHeatNetFlux_Sfc_RLatLon0.03_PT038H.grib2 2026-05-06 06:18 1.9M
20260506T00Z_MSC_CAPS_LiftedIndex-MU-VT_IsbL-0500_RLatLon0.03_PT038H.grib2 2026-05-06 06:18 3.3M
20260506T00Z_MSC_CAPS_MixedLayerThickness_Sfc_RLatLon0.03_PT038H.nc 2026-05-06 06:12 17M
20260506T00Z_MSC_CAPS_NetLongwaveRadiationFlux-Accum_Sfc_RLatLon0.03_PT038H.grib2 2026-05-06 06:18 2.9M
20260506T00Z_MSC_CAPS_NetShortwaveRadiationFlux-Accum_Sfc_RLatLon0.03_PT038H.grib2 2026-05-06 06:18 2.9M
20260506T00Z_MSC_CAPS_PlanetaryBoundaryLayerHeight_Sfc_RLatLon0.03_PT038H.grib2 2026-05-06 06:18 2.7M
20260506T00Z_MSC_CAPS_Precip-Accum_Sfc_RLatLon0.03_PT038H.grib2 2026-05-06 06:18 5.6M
20260506T00Z_MSC_CAPS_PrecipRate_Sfc_RLatLon0.03_PT038H.grib2 2026-05-06 06:18 258K
20260506T00Z_MSC_CAPS_PrecipType-Instant_Sfc_RLatLon0.03_PT038H.grib2 2026-05-06 06:18 2.2M
20260506T00Z_MSC_CAPS_Pressure_MSL_RLatLon0.03_PT038H.grib2 2026-05-06 06:18 762K
20260506T00Z_MSC_CAPS_Pressure_Sfc_RLatLon0.03_PT038H.grib2 2026-05-06 06:18 1.2M
20260506T00Z_MSC_CAPS_RadiativeTemp_Sfc_RLatLon0.03_PT038H.grib2 2026-05-06 06:18 2.1M
20260506T00Z_MSC_CAPS_Rain-Accum_Sfc_RLatLon0.03_PT038H.grib2 2026-05-06 06:18 2.9M
20260506T00Z_MSC_CAPS_RelativeHumidity_AGL-120m_RLatLon0.03_PT038H.grib2 2026-05-06 06:18 2.9M
20260506T00Z_MSC_CAPS_RelativeHumidity_AGL-2m_RLatLon0.03_PT038H.grib2 2026-05-06 06:18 3.0M
20260506T00Z_MSC_CAPS_RelativeHumidity_AGL-40m_RLatLon0.03_PT038H.grib2 2026-05-06 06:18 3.0M
20260506T00Z_MSC_CAPS_RelativeHumidity_AGL-80m_RLatLon0.03_PT038H.grib2 2026-05-06 06:18 2.9M
20260506T00Z_MSC_CAPS_RelativeHumidity_IsbL-0050_RLatLon0.03_PT038H.grib2 2026-05-06 06:18 722K
20260506T00Z_MSC_CAPS_RelativeHumidity_IsbL-0100_RLatLon0.03_PT038H.grib2 2026-05-06 06:18 1.1M
20260506T00Z_MSC_CAPS_RelativeHumidity_IsbL-0150_RLatLon0.03_PT038H.grib2 2026-05-06 06:18 579K
20260506T00Z_MSC_CAPS_RelativeHumidity_IsbL-0175_RLatLon0.03_PT038H.grib2 2026-05-06 06:18 469K
20260506T00Z_MSC_CAPS_RelativeHumidity_IsbL-0200_RLatLon0.03_PT038H.grib2 2026-05-06 06:18 700K
20260506T00Z_MSC_CAPS_RelativeHumidity_IsbL-0225_RLatLon0.03_PT038H.grib2 2026-05-06 06:18 916K
20260506T00Z_MSC_CAPS_RelativeHumidity_IsbL-0250_RLatLon0.03_PT038H.grib2 2026-05-06 06:18 1.1M
20260506T00Z_MSC_CAPS_RelativeHumidity_IsbL-0275_RLatLon0.03_PT038H.grib2 2026-05-06 06:18 1.4M
20260506T00Z_MSC_CAPS_RelativeHumidity_IsbL-0300_RLatLon0.03_PT038H.grib2 2026-05-06 06:18 1.7M
20260506T00Z_MSC_CAPS_RelativeHumidity_IsbL-0350_RLatLon0.03_PT038H.grib2 2026-05-06 06:18 2.0M
20260506T00Z_MSC_CAPS_RelativeHumidity_IsbL-0400_RLatLon0.03_PT038H.grib2 2026-05-06 06:18 2.1M
20260506T00Z_MSC_CAPS_RelativeHumidity_IsbL-0450_RLatLon0.03_PT038H.grib2 2026-05-06 06:18 2.0M
20260506T00Z_MSC_CAPS_RelativeHumidity_IsbL-0500_RLatLon0.03_PT038H.grib2 2026-05-06 06:18 2.2M
20260506T00Z_MSC_CAPS_RelativeHumidity_IsbL-0550_RLatLon0.03_PT038H.grib2 2026-05-06 06:18 2.2M
20260506T00Z_MSC_CAPS_RelativeHumidity_IsbL-0600_RLatLon0.03_PT038H.grib2 2026-05-06 06:18 2.3M
20260506T00Z_MSC_CAPS_RelativeHumidity_IsbL-0650_RLatLon0.03_PT038H.grib2 2026-05-06 06:18 2.3M
20260506T00Z_MSC_CAPS_RelativeHumidity_IsbL-0700_RLatLon0.03_PT038H.grib2 2026-05-06 06:18 2.4M
20260506T00Z_MSC_CAPS_RelativeHumidity_IsbL-0750_RLatLon0.03_PT038H.grib2 2026-05-06 06:18 2.4M
20260506T00Z_MSC_CAPS_RelativeHumidity_IsbL-0800_RLatLon0.03_PT038H.grib2 2026-05-06 06:18 2.6M
20260506T00Z_MSC_CAPS_RelativeHumidity_IsbL-0850_RLatLon0.03_PT038H.grib2 2026-05-06 06:18 2.7M
20260506T00Z_MSC_CAPS_RelativeHumidity_IsbL-0875_RLatLon0.03_PT038H.grib2 2026-05-06 06:18 2.7M
20260506T00Z_MSC_CAPS_RelativeHumidity_IsbL-0900_RLatLon0.03_PT038H.grib2 2026-05-06 06:18 2.8M
20260506T00Z_MSC_CAPS_RelativeHumidity_IsbL-0925_RLatLon0.03_PT038H.grib2 2026-05-06 06:18 2.8M
20260506T00Z_MSC_CAPS_RelativeHumidity_IsbL-0950_RLatLon0.03_PT038H.grib2 2026-05-06 06:18 2.9M
20260506T00Z_MSC_CAPS_RelativeHumidity_IsbL-0970_RLatLon0.03_PT038H.grib2 2026-05-06 06:18 2.9M
20260506T00Z_MSC_CAPS_RelativeHumidity_IsbL-0985_RLatLon0.03_PT038H.grib2 2026-05-06 06:18 3.0M
20260506T00Z_MSC_CAPS_RelativeHumidity_IsbL-1000_RLatLon0.03_PT038H.grib2 2026-05-06 06:18 3.0M
20260506T00Z_MSC_CAPS_RelativeHumidity_IsbL-1015_RLatLon0.03_PT038H.grib2 2026-05-06 06:18 3.0M
20260506T00Z_MSC_CAPS_Runoff-Accum_Sfc_RLatLon0.03_PT038H.grib2 2026-05-06 06:18 316K
20260506T00Z_MSC_CAPS_SeaIceAreaFraction_Sfc_RLatLon0.03_PT038H.nc 2026-05-06 06:12 15M
20260506T00Z_MSC_CAPS_SeaIceCompressiveStrength_Sfc_RLatLon0.03_PT038H.nc 2026-05-06 06:12 15M
20260506T00Z_MSC_CAPS_SeaIceDivergence_Sfc_RLatLon0.03_PT038H.nc 2026-05-06 06:12 15M
20260506T00Z_MSC_CAPS_SeaIceInternalPressure_Sfc_RLatLon0.03_PT038H.nc 2026-05-06 06:12 15M
20260506T00Z_MSC_CAPS_SeaIceShear_Sfc_RLatLon0.03_PT038H.nc 2026-05-06 06:12 15M
20260506T00Z_MSC_CAPS_SeaIceSnowTemp_Sfc_RLatLon0.03_PT038H.nc 2026-05-06 06:12 14M
20260506T00Z_MSC_CAPS_SeaIceSnowVolume_Sfc_RLatLon0.03_PT038H.nc 2026-05-06 06:12 15M
20260506T00Z_MSC_CAPS_SeaIceVelocityX_Sfc_RLatLon0.03_PT038H.nc 2026-05-06 06:12 15M
20260506T00Z_MSC_CAPS_SeaIceVelocityY_Sfc_RLatLon0.03_PT038H.nc 2026-05-06 06:12 15M
20260506T00Z_MSC_CAPS_SeaIceVolume_Sfc_RLatLon0.03_PT038H.nc 2026-05-06 06:12 15M
20260506T00Z_MSC_CAPS_SeaSurfaceHeight_Sfc_RLatLon0.03_PT038H.nc 2026-05-06 06:12 16M
20260506T00Z_MSC_CAPS_SeaWaterSalinity_DBS-0.5m_RLatLon0.03_PT038H.nc 2026-05-06 06:12 16M
20260506T00Z_MSC_CAPS_SeaWaterSalinity_DBS-all_RLatLon0.03_PT038H.nc 2026-05-06 06:12 107M
20260506T00Z_MSC_CAPS_SeaWaterTemp_DBS-0.5m_RLatLon0.03_PT038H.nc 2026-05-06 06:12 15M
20260506T00Z_MSC_CAPS_SeaWaterTemp_DBS-all_RLatLon0.03_PT038H.nc 2026-05-06 06:12 88M
20260506T00Z_MSC_CAPS_SeaWaterVelocityX_DBS-0.5m_RLatLon0.03_PT038H.nc 2026-05-06 06:12 17M
20260506T00Z_MSC_CAPS_SeaWaterVelocityX_DBS-all_RLatLon0.03_PT038H.nc 2026-05-06 06:12 209M
20260506T00Z_MSC_CAPS_SeaWaterVelocityY_DBS-0.5m_RLatLon0.03_PT038H.nc 2026-05-06 06:12 17M
20260506T00Z_MSC_CAPS_SeaWaterVelocityY_DBS-all_RLatLon0.03_PT038H.nc 2026-05-06 06:12 215M
20260506T00Z_MSC_CAPS_SensibleHeatNetFlux_Sfc_RLatLon0.03_PT038H.grib2 2026-05-06 06:18 2.1M
20260506T00Z_MSC_CAPS_ShowalterIndex_IsbL-0500_RLatLon0.03_PT038H.grib2 2026-05-06 06:18 4.3M
20260506T00Z_MSC_CAPS_Snow-Accum_Sfc_RLatLon0.03_PT038H.grib2 2026-05-06 06:18 4.4M
20260506T00Z_MSC_CAPS_SnowDensity_Sfc_RLatLon0.03_PT038H.grib2 2026-05-06 06:18 1.3M
20260506T00Z_MSC_CAPS_SnowDepthWaterEquivalent_Sfc_RLatLon0.03_PT038H.grib2 2026-05-06 06:18 648K
20260506T00Z_MSC_CAPS_SnowDepth_Sfc_RLatLon0.03_PT038H.grib2 2026-05-06 06:18 1.1M
20260506T00Z_MSC_CAPS_SoilTemp_DBS-0to10cm_RLatLon0.03_PT038H.grib2 2026-05-06 06:18 1.7M
20260506T00Z_MSC_CAPS_SoilTemp_Sfc_RLatLon0.03_PT038H.grib2 2026-05-06 06:18 1.8M
20260506T00Z_MSC_CAPS_SoilVolumetricIceContent_Sfc_RLatLon0.03_PT038H.grib2 2026-05-06 06:18 1.4M
20260506T00Z_MSC_CAPS_SoilVolumetricWaterContent_DBS-0to10cm_RLatLon0.03_PT038H.grib2 2026-05-06 06:18 1.3M
20260506T00Z_MSC_CAPS_SoilVolumetricWaterContent_DBS-0to1cm_RLatLon0.03_PT038H.grib2 2026-05-06 06:18 1.8M
20260506T00Z_MSC_CAPS_SpecificHumidity_AGL-120m_RLatLon0.03_PT038H.grib2 2026-05-06 06:18 1.5M
20260506T00Z_MSC_CAPS_SpecificHumidity_AGL-2m_RLatLon0.03_PT038H.grib2 2026-05-06 06:18 1.8M
20260506T00Z_MSC_CAPS_SpecificHumidity_AGL-40m_RLatLon0.03_PT038H.grib2 2026-05-06 06:18 1.6M
20260506T00Z_MSC_CAPS_SpecificHumidity_AGL-80m_RLatLon0.03_PT038H.grib2 2026-05-06 06:18 1.6M
20260506T00Z_MSC_CAPS_SpecificHumidity_IsbL-0050_RLatLon0.03_PT038H.grib2 2026-05-06 06:18 930K
20260506T00Z_MSC_CAPS_SpecificHumidity_IsbL-0100_RLatLon0.03_PT038H.grib2 2026-05-06 06:18 1.1M
20260506T00Z_MSC_CAPS_SpecificHumidity_IsbL-0150_RLatLon0.03_PT038H.grib2 2026-05-06 06:18 1.0M
20260506T00Z_MSC_CAPS_SpecificHumidity_IsbL-0175_RLatLon0.03_PT038H.grib2 2026-05-06 06:18 881K
20260506T00Z_MSC_CAPS_SpecificHumidity_IsbL-0200_RLatLon0.03_PT038H.grib2 2026-05-06 06:18 1.0M
20260506T00Z_MSC_CAPS_SpecificHumidity_IsbL-0225_RLatLon0.03_PT038H.grib2 2026-05-06 06:18 1.1M
20260506T00Z_MSC_CAPS_SpecificHumidity_IsbL-0250_RLatLon0.03_PT038H.grib2 2026-05-06 06:18 1.1M
20260506T00Z_MSC_CAPS_SpecificHumidity_IsbL-0275_RLatLon0.03_PT038H.grib2 2026-05-06 06:18 1.1M
20260506T00Z_MSC_CAPS_SpecificHumidity_IsbL-0300_RLatLon0.03_PT038H.grib2 2026-05-06 06:18 1.1M
20260506T00Z_MSC_CAPS_SpecificHumidity_IsbL-0350_RLatLon0.03_PT038H.grib2 2026-05-06 06:18 1.0M
20260506T00Z_MSC_CAPS_SpecificHumidity_IsbL-0400_RLatLon0.03_PT038H.grib2 2026-05-06 06:18 1.0M
20260506T00Z_MSC_CAPS_SpecificHumidity_IsbL-0450_RLatLon0.03_PT038H.grib2 2026-05-06 06:18 1.2M
20260506T00Z_MSC_CAPS_SpecificHumidity_IsbL-0500_RLatLon0.03_PT038H.grib2 2026-05-06 06:18 1.1M
20260506T00Z_MSC_CAPS_SpecificHumidity_IsbL-0550_RLatLon0.03_PT038H.grib2 2026-05-06 06:18 1.3M
20260506T00Z_MSC_CAPS_SpecificHumidity_IsbL-0600_RLatLon0.03_PT038H.grib2 2026-05-06 06:18 1.4M
20260506T00Z_MSC_CAPS_SpecificHumidity_IsbL-0650_RLatLon0.03_PT038H.grib2 2026-05-06 06:18 1.2M
20260506T00Z_MSC_CAPS_SpecificHumidity_IsbL-0700_RLatLon0.03_PT038H.grib2 2026-05-06 06:18 1.4M
20260506T00Z_MSC_CAPS_SpecificHumidity_IsbL-0750_RLatLon0.03_PT038H.grib2 2026-05-06 06:18 1.5M
20260506T00Z_MSC_CAPS_SpecificHumidity_IsbL-0800_RLatLon0.03_PT038H.grib2 2026-05-06 06:18 1.7M
20260506T00Z_MSC_CAPS_SpecificHumidity_IsbL-0850_RLatLon0.03_PT038H.grib2 2026-05-06 06:18 1.8M
20260506T00Z_MSC_CAPS_SpecificHumidity_IsbL-0875_RLatLon0.03_PT038H.grib2 2026-05-06 06:18 1.9M
20260506T00Z_MSC_CAPS_SpecificHumidity_IsbL-0900_RLatLon0.03_PT038H.grib2 2026-05-06 06:18 2.0M
20260506T00Z_MSC_CAPS_SpecificHumidity_IsbL-0925_RLatLon0.03_PT038H.grib2 2026-05-06 06:18 1.6M
20260506T00Z_MSC_CAPS_SpecificHumidity_IsbL-0950_RLatLon0.03_PT038H.grib2 2026-05-06 06:18 1.7M
20260506T00Z_MSC_CAPS_SpecificHumidity_IsbL-0970_RLatLon0.03_PT038H.grib2 2026-05-06 06:18 1.7M
20260506T00Z_MSC_CAPS_SpecificHumidity_IsbL-0985_RLatLon0.03_PT038H.grib2 2026-05-06 06:18 1.8M
20260506T00Z_MSC_CAPS_SpecificHumidity_IsbL-1000_RLatLon0.03_PT038H.grib2 2026-05-06 06:18 1.8M
20260506T00Z_MSC_CAPS_SpecificHumidity_IsbL-1015_RLatLon0.03_PT038H.grib2 2026-05-06 06:18 1.8M
20260506T00Z_MSC_CAPS_SpecificHumidity_Sfc_RLatLon0.03_PT038H.grib2 2026-05-06 06:18 2.1M
20260506T00Z_MSC_CAPS_StormRelativeHelicity_Sfc_RLatLon0.03_PT038H.grib2 2026-05-06 06:18 3.1M
20260506T00Z_MSC_CAPS_Thickness_IsbL-1000to0500_RLatLon0.03_PT038H.grib2 2026-05-06 06:18 409K
20260506T00Z_MSC_CAPS_TotalCloudCover_Sfc_RLatLon0.03_PT038H.grib2 2026-05-06 06:18 3.9M
20260506T00Z_MSC_CAPS_TurboclineDepth_Sfc_RLatLon0.03_PT038H.nc 2026-05-06 06:12 16M
20260506T00Z_MSC_CAPS_UpwardLongwaveRadiationFlux_NTAtm_RLatLon0.03_PT038H.grib2 2026-05-06 06:18 3.1M
20260506T00Z_MSC_CAPS_UpwardShortwaveRadiationFlux_NTAtm_RLatLon0.03_PT038H.grib2 2026-05-06 06:18 2.6M
20260506T00Z_MSC_CAPS_VerticalVelocity_IsbL-0250_RLatLon0.03_PT038H.grib2 2026-05-06 06:18 863K
20260506T00Z_MSC_CAPS_VerticalVelocity_IsbL-0500_RLatLon0.03_PT038H.grib2 2026-05-06 06:18 1.0M
20260506T00Z_MSC_CAPS_VerticalVelocity_IsbL-0700_RLatLon0.03_PT038H.grib2 2026-05-06 06:18 964K
20260506T00Z_MSC_CAPS_VerticalVelocity_IsbL-0850_RLatLon0.03_PT038H.grib2 2026-05-06 06:18 1.1M
20260506T00Z_MSC_CAPS_VerticalVelocity_IsbL-1000_RLatLon0.03_PT038H.grib2 2026-05-06 06:18 1.3M
20260506T00Z_MSC_CAPS_WindDir_AGL-10m_RLatLon0.03_PT038H.grib2 2026-05-06 06:18 2.5M
20260506T00Z_MSC_CAPS_WindDir_AGL-120m_RLatLon0.03_PT038H.grib2 2026-05-06 06:18 1.3M
20260506T00Z_MSC_CAPS_WindDir_AGL-40m_RLatLon0.03_PT038H.grib2 2026-05-06 06:18 1.5M
20260506T00Z_MSC_CAPS_WindDir_AGL-80m_RLatLon0.03_PT038H.grib2 2026-05-06 06:18 1.4M
20260506T00Z_MSC_CAPS_WindDir_IsbL-0050_RLatLon0.03_PT038H.grib2 2026-05-06 06:18 1.1M
20260506T00Z_MSC_CAPS_WindDir_IsbL-0100_RLatLon0.03_PT038H.grib2 2026-05-06 06:18 1.1M
20260506T00Z_MSC_CAPS_WindDir_IsbL-0150_RLatLon0.03_PT038H.grib2 2026-05-06 06:18 1.1M
20260506T00Z_MSC_CAPS_WindDir_IsbL-0175_RLatLon0.03_PT038H.grib2 2026-05-06 06:18 1.0M
20260506T00Z_MSC_CAPS_WindDir_IsbL-0200_RLatLon0.03_PT038H.grib2 2026-05-06 06:18 1.1M
20260506T00Z_MSC_CAPS_WindDir_IsbL-0225_RLatLon0.03_PT038H.grib2 2026-05-06 06:18 1.1M
20260506T00Z_MSC_CAPS_WindDir_IsbL-0250_RLatLon0.03_PT038H.grib2 2026-05-06 06:18 1.1M
20260506T00Z_MSC_CAPS_WindDir_IsbL-0275_RLatLon0.03_PT038H.grib2 2026-05-06 06:18 1.1M
20260506T00Z_MSC_CAPS_WindDir_IsbL-0300_RLatLon0.03_PT038H.grib2 2026-05-06 06:18 1.1M
20260506T00Z_MSC_CAPS_WindDir_IsbL-0350_RLatLon0.03_PT038H.grib2 2026-05-06 06:18 1.1M
20260506T00Z_MSC_CAPS_WindDir_IsbL-0400_RLatLon0.03_PT038H.grib2 2026-05-06 06:18 1.2M
20260506T00Z_MSC_CAPS_WindDir_IsbL-0450_RLatLon0.03_PT038H.grib2 2026-05-06 06:18 1.2M
20260506T00Z_MSC_CAPS_WindDir_IsbL-0500_RLatLon0.03_PT038H.grib2 2026-05-06 06:18 1.2M
20260506T00Z_MSC_CAPS_WindDir_IsbL-0550_RLatLon0.03_PT038H.grib2 2026-05-06 06:18 1.2M
20260506T00Z_MSC_CAPS_WindDir_IsbL-0600_RLatLon0.03_PT038H.grib2 2026-05-06 06:18 1.3M
20260506T00Z_MSC_CAPS_WindDir_IsbL-0650_RLatLon0.03_PT038H.grib2 2026-05-06 06:18 1.4M
20260506T00Z_MSC_CAPS_WindDir_IsbL-0700_RLatLon0.03_PT038H.grib2 2026-05-06 06:18 1.5M
20260506T00Z_MSC_CAPS_WindDir_IsbL-0750_RLatLon0.03_PT038H.grib2 2026-05-06 06:18 1.6M
20260506T00Z_MSC_CAPS_WindDir_IsbL-0800_RLatLon0.03_PT038H.grib2 2026-05-06 06:18 1.8M
20260506T00Z_MSC_CAPS_WindDir_IsbL-0850_RLatLon0.03_PT038H.grib2 2026-05-06 06:18 1.9M
20260506T00Z_MSC_CAPS_WindDir_IsbL-0875_RLatLon0.03_PT038H.grib2 2026-05-06 06:18 2.0M
20260506T00Z_MSC_CAPS_WindDir_IsbL-0900_RLatLon0.03_PT038H.grib2 2026-05-06 06:18 2.0M
20260506T00Z_MSC_CAPS_WindDir_IsbL-0925_RLatLon0.03_PT038H.grib2 2026-05-06 06:18 2.1M
20260506T00Z_MSC_CAPS_WindDir_IsbL-0950_RLatLon0.03_PT038H.grib2 2026-05-06 06:18 2.2M
20260506T00Z_MSC_CAPS_WindDir_IsbL-0970_RLatLon0.03_PT038H.grib2 2026-05-06 06:18 2.3M
20260506T00Z_MSC_CAPS_WindDir_IsbL-0985_RLatLon0.03_PT038H.grib2 2026-05-06 06:18 2.3M
20260506T00Z_MSC_CAPS_WindDir_IsbL-1000_RLatLon0.03_PT038H.grib2 2026-05-06 06:18 2.4M
20260506T00Z_MSC_CAPS_WindDir_IsbL-1015_RLatLon0.03_PT038H.grib2 2026-05-06 06:18 2.5M
20260506T00Z_MSC_CAPS_WindGust-Max_AGL-10m_RLatLon0.03_PT038H.grib2 2026-05-06 06:18 2.5M
20260506T00Z_MSC_CAPS_WindGust-Min_AGL-10m_RLatLon0.03_PT038H.grib2 2026-05-06 06:18 2.4M
20260506T00Z_MSC_CAPS_WindGust_AGL-10m_RLatLon0.03_PT038H.grib2 2026-05-06 06:18 2.5M
20260506T00Z_MSC_CAPS_WindSpeed_AGL-10m_RLatLon0.03_PT038H.grib2 2026-05-06 06:18 2.1M
20260506T00Z_MSC_CAPS_WindSpeed_AGL-120m_RLatLon0.03_PT038H.grib2 2026-05-06 06:18 1.1M
20260506T00Z_MSC_CAPS_WindSpeed_AGL-40m_RLatLon0.03_PT038H.grib2 2026-05-06 06:18 1.2M
20260506T00Z_MSC_CAPS_WindSpeed_AGL-80m_RLatLon0.03_PT038H.grib2 2026-05-06 06:18 1.2M
20260506T00Z_MSC_CAPS_WindSpeed_IsbL-0050_RLatLon0.03_PT038H.grib2 2026-05-06 06:18 933K
20260506T00Z_MSC_CAPS_WindSpeed_IsbL-0100_RLatLon0.03_PT038H.grib2 2026-05-06 06:18 1.3M
20260506T00Z_MSC_CAPS_WindSpeed_IsbL-0150_RLatLon0.03_PT038H.grib2 2026-05-06 06:18 1.0M
20260506T00Z_MSC_CAPS_WindSpeed_IsbL-0175_RLatLon0.03_PT038H.grib2 2026-05-06 06:18 1.2M
20260506T00Z_MSC_CAPS_WindSpeed_IsbL-0200_RLatLon0.03_PT038H.grib2 2026-05-06 06:18 1.2M
20260506T00Z_MSC_CAPS_WindSpeed_IsbL-0225_RLatLon0.03_PT038H.grib2 2026-05-06 06:18 1.3M
20260506T00Z_MSC_CAPS_WindSpeed_IsbL-0250_RLatLon0.03_PT038H.grib2 2026-05-06 06:18 1.3M
20260506T00Z_MSC_CAPS_WindSpeed_IsbL-0275_RLatLon0.03_PT038H.grib2 2026-05-06 06:18 1.0M
20260506T00Z_MSC_CAPS_WindSpeed_IsbL-0300_RLatLon0.03_PT038H.grib2 2026-05-06 06:18 1.0M
20260506T00Z_MSC_CAPS_WindSpeed_IsbL-0350_RLatLon0.03_PT038H.grib2 2026-05-06 06:18 1.0M
20260506T00Z_MSC_CAPS_WindSpeed_IsbL-0400_RLatLon0.03_PT038H.grib2 2026-05-06 06:18 1.3M
20260506T00Z_MSC_CAPS_WindSpeed_IsbL-0450_RLatLon0.03_PT038H.grib2 2026-05-06 06:18 1.3M
20260506T00Z_MSC_CAPS_WindSpeed_IsbL-0500_RLatLon0.03_PT038H.grib2 2026-05-06 06:18 1.4M
20260506T00Z_MSC_CAPS_WindSpeed_IsbL-0550_RLatLon0.03_PT038H.grib2 2026-05-06 06:18 1.4M
20260506T00Z_MSC_CAPS_WindSpeed_IsbL-0600_RLatLon0.03_PT038H.grib2 2026-05-06 06:18 1.4M
20260506T00Z_MSC_CAPS_WindSpeed_IsbL-0650_RLatLon0.03_PT038H.grib2 2026-05-06 06:18 1.4M
20260506T00Z_MSC_CAPS_WindSpeed_IsbL-0700_RLatLon0.03_PT038H.grib2 2026-05-06 06:18 1.5M
20260506T00Z_MSC_CAPS_WindSpeed_IsbL-0750_RLatLon0.03_PT038H.grib2 2026-05-06 06:18 1.6M
20260506T00Z_MSC_CAPS_WindSpeed_IsbL-0800_RLatLon0.03_PT038H.grib2 2026-05-06 06:18 1.6M
20260506T00Z_MSC_CAPS_WindSpeed_IsbL-0850_RLatLon0.03_PT038H.grib2 2026-05-06 06:18 1.8M
20260506T00Z_MSC_CAPS_WindSpeed_IsbL-0875_RLatLon0.03_PT038H.grib2 2026-05-06 06:18 1.8M
20260506T00Z_MSC_CAPS_WindSpeed_IsbL-0900_RLatLon0.03_PT038H.grib2 2026-05-06 06:18 1.9M
20260506T00Z_MSC_CAPS_WindSpeed_IsbL-0925_RLatLon0.03_PT038H.grib2 2026-05-06 06:18 1.9M
20260506T00Z_MSC_CAPS_WindSpeed_IsbL-0950_RLatLon0.03_PT038H.grib2 2026-05-06 06:18 2.0M
20260506T00Z_MSC_CAPS_WindSpeed_IsbL-0970_RLatLon0.03_PT038H.grib2 2026-05-06 06:18 2.0M
20260506T00Z_MSC_CAPS_WindSpeed_IsbL-0985_RLatLon0.03_PT038H.grib2 2026-05-06 06:18 2.0M
20260506T00Z_MSC_CAPS_WindSpeed_IsbL-1000_RLatLon0.03_PT038H.grib2 2026-05-06 06:18 2.1M
20260506T00Z_MSC_CAPS_WindSpeed_IsbL-1015_RLatLon0.03_PT038H.grib2 2026-05-06 06:18 2.1M
20260506T00Z_MSC_CAPS_WindU_AGL-10m_RLatLon0.03_PT038H.grib2 2026-05-06 06:18 2.0M
20260506T00Z_MSC_CAPS_WindU_AGL-120m_RLatLon0.03_PT038H.grib2 2026-05-06 06:18 1.2M
20260506T00Z_MSC_CAPS_WindU_AGL-40m_RLatLon0.03_PT038H.grib2 2026-05-06 06:18 1.2M
20260506T00Z_MSC_CAPS_WindU_AGL-80m_RLatLon0.03_PT038H.grib2 2026-05-06 06:18 1.2M
20260506T00Z_MSC_CAPS_WindU_IsbL-0050_RLatLon0.03_PT038H.grib2 2026-05-06 06:18 931K
20260506T00Z_MSC_CAPS_WindU_IsbL-0100_RLatLon0.03_PT038H.grib2 2026-05-06 06:18 953K
20260506T00Z_MSC_CAPS_WindU_IsbL-0150_RLatLon0.03_PT038H.grib2 2026-05-06 06:18 923K
20260506T00Z_MSC_CAPS_WindU_IsbL-0175_RLatLon0.03_PT038H.grib2 2026-05-06 06:18 739K
20260506T00Z_MSC_CAPS_WindU_IsbL-0200_RLatLon0.03_PT038H.grib2 2026-05-06 06:18 761K
20260506T00Z_MSC_CAPS_WindU_IsbL-0225_RLatLon0.03_PT038H.grib2 2026-05-06 06:18 907K
20260506T00Z_MSC_CAPS_WindU_IsbL-0250_RLatLon0.03_PT038H.grib2 2026-05-06 06:18 921K
20260506T00Z_MSC_CAPS_WindU_IsbL-0275_RLatLon0.03_PT038H.grib2 2026-05-06 06:18 925K
20260506T00Z_MSC_CAPS_WindU_IsbL-0300_RLatLon0.03_PT038H.grib2 2026-05-06 06:18 720K
20260506T00Z_MSC_CAPS_WindU_IsbL-0350_RLatLon0.03_PT038H.grib2 2026-05-06 06:18 731K
20260506T00Z_MSC_CAPS_WindU_IsbL-0400_RLatLon0.03_PT038H.grib2 2026-05-06 06:18 956K
20260506T00Z_MSC_CAPS_WindU_IsbL-0450_RLatLon0.03_PT038H.grib2 2026-05-06 06:18 1.0M
20260506T00Z_MSC_CAPS_WindU_IsbL-0500_RLatLon0.03_PT038H.grib2 2026-05-06 06:18 1.0M
20260506T00Z_MSC_CAPS_WindU_IsbL-0550_RLatLon0.03_PT038H.grib2 2026-05-06 06:18 924K
20260506T00Z_MSC_CAPS_WindU_IsbL-0600_RLatLon0.03_PT038H.grib2 2026-05-06 06:18 953K
20260506T00Z_MSC_CAPS_WindU_IsbL-0650_RLatLon0.03_PT038H.grib2 2026-05-06 06:18 1.2M
20260506T00Z_MSC_CAPS_WindU_IsbL-0700_RLatLon0.03_PT038H.grib2 2026-05-06 06:18 1.3M
20260506T00Z_MSC_CAPS_WindU_IsbL-0750_RLatLon0.03_PT038H.grib2 2026-05-06 06:18 1.1M
20260506T00Z_MSC_CAPS_WindU_IsbL-0800_RLatLon0.03_PT038H.grib2 2026-05-06 06:18 1.1M
20260506T00Z_MSC_CAPS_WindU_IsbL-0850_RLatLon0.03_PT038H.grib2 2026-05-06 06:18 1.2M
20260506T00Z_MSC_CAPS_WindU_IsbL-0875_RLatLon0.03_PT038H.grib2 2026-05-06 06:18 1.3M
20260506T00Z_MSC_CAPS_WindU_IsbL-0900_RLatLon0.03_PT038H.grib2 2026-05-06 06:18 1.3M
20260506T00Z_MSC_CAPS_WindU_IsbL-0925_RLatLon0.03_PT038H.grib2 2026-05-06 06:18 1.3M
20260506T00Z_MSC_CAPS_WindU_IsbL-0950_RLatLon0.03_PT038H.grib2 2026-05-06 06:18 1.4M
20260506T00Z_MSC_CAPS_WindU_IsbL-0970_RLatLon0.03_PT038H.grib2 2026-05-06 06:18 1.4M
20260506T00Z_MSC_CAPS_WindU_IsbL-0985_RLatLon0.03_PT038H.grib2 2026-05-06 06:18 1.4M
20260506T00Z_MSC_CAPS_WindU_IsbL-1000_RLatLon0.03_PT038H.grib2 2026-05-06 06:18 1.9M
20260506T00Z_MSC_CAPS_WindU_IsbL-1015_RLatLon0.03_PT038H.grib2 2026-05-06 06:18 1.9M
20260506T00Z_MSC_CAPS_WindV_AGL-10m_RLatLon0.03_PT038H.grib2 2026-05-06 06:18 2.0M
20260506T00Z_MSC_CAPS_WindV_AGL-120m_RLatLon0.03_PT038H.grib2 2026-05-06 06:18 1.2M
20260506T00Z_MSC_CAPS_WindV_AGL-40m_RLatLon0.03_PT038H.grib2 2026-05-06 06:18 1.2M
20260506T00Z_MSC_CAPS_WindV_AGL-80m_RLatLon0.03_PT038H.grib2 2026-05-06 06:18 1.2M
20260506T00Z_MSC_CAPS_WindV_IsbL-0050_RLatLon0.03_PT038H.grib2 2026-05-06 06:18 758K
20260506T00Z_MSC_CAPS_WindV_IsbL-0100_RLatLon0.03_PT038H.grib2 2026-05-06 06:18 782K
20260506T00Z_MSC_CAPS_WindV_IsbL-0150_RLatLon0.03_PT038H.grib2 2026-05-06 06:18 1.0M
20260506T00Z_MSC_CAPS_WindV_IsbL-0175_RLatLon0.03_PT038H.grib2 2026-05-06 06:18 726K
20260506T00Z_MSC_CAPS_WindV_IsbL-0200_RLatLon0.03_PT038H.grib2 2026-05-06 06:18 875K
20260506T00Z_MSC_CAPS_WindV_IsbL-0225_RLatLon0.03_PT038H.grib2 2026-05-06 06:18 895K
20260506T00Z_MSC_CAPS_WindV_IsbL-0250_RLatLon0.03_PT038H.grib2 2026-05-06 06:18 914K
20260506T00Z_MSC_CAPS_WindV_IsbL-0275_RLatLon0.03_PT038H.grib2 2026-05-06 06:18 919K
20260506T00Z_MSC_CAPS_WindV_IsbL-0300_RLatLon0.03_PT038H.grib2 2026-05-06 06:18 926K
20260506T00Z_MSC_CAPS_WindV_IsbL-0350_RLatLon0.03_PT038H.grib2 2026-05-06 06:18 941K
20260506T00Z_MSC_CAPS_WindV_IsbL-0400_RLatLon0.03_PT038H.grib2 2026-05-06 06:18 949K
20260506T00Z_MSC_CAPS_WindV_IsbL-0450_RLatLon0.03_PT038H.grib2 2026-05-06 06:18 968K
20260506T00Z_MSC_CAPS_WindV_IsbL-0500_RLatLon0.03_PT038H.grib2 2026-05-06 06:18 880K
20260506T00Z_MSC_CAPS_WindV_IsbL-0550_RLatLon0.03_PT038H.grib2 2026-05-06 06:18 912K
20260506T00Z_MSC_CAPS_WindV_IsbL-0600_RLatLon0.03_PT038H.grib2 2026-05-06 06:18 1.2M
20260506T00Z_MSC_CAPS_WindV_IsbL-0650_RLatLon0.03_PT038H.grib2 2026-05-06 06:18 1.2M
20260506T00Z_MSC_CAPS_WindV_IsbL-0700_RLatLon0.03_PT038H.grib2 2026-05-06 06:18 1.0M
20260506T00Z_MSC_CAPS_WindV_IsbL-0750_RLatLon0.03_PT038H.grib2 2026-05-06 06:18 1.1M
20260506T00Z_MSC_CAPS_WindV_IsbL-0800_RLatLon0.03_PT038H.grib2 2026-05-06 06:18 1.1M
20260506T00Z_MSC_CAPS_WindV_IsbL-0850_RLatLon0.03_PT038H.grib2 2026-05-06 06:18 1.2M
20260506T00Z_MSC_CAPS_WindV_IsbL-0875_RLatLon0.03_PT038H.grib2 2026-05-06 06:18 1.2M
20260506T00Z_MSC_CAPS_WindV_IsbL-0900_RLatLon0.03_PT038H.grib2 2026-05-06 06:18 1.3M
20260506T00Z_MSC_CAPS_WindV_IsbL-0925_RLatLon0.03_PT038H.grib2 2026-05-06 06:18 1.3M
20260506T00Z_MSC_CAPS_WindV_IsbL-0950_RLatLon0.03_PT038H.grib2 2026-05-06 06:18 1.4M
20260506T00Z_MSC_CAPS_WindV_IsbL-0970_RLatLon0.03_PT038H.grib2 2026-05-06 06:18 1.8M
20260506T00Z_MSC_CAPS_WindV_IsbL-0985_RLatLon0.03_PT038H.grib2 2026-05-06 06:18 1.8M
20260506T00Z_MSC_CAPS_WindV_IsbL-1000_RLatLon0.03_PT038H.grib2 2026-05-06 06:18 2.0M
20260506T00Z_MSC_CAPS_WindV_IsbL-1015_RLatLon0.03_PT038H.grib2 2026-05-06 06:18 2.0M